| time (UTC) | temp F | wind direction | speed MPH | gust MPH | rain 1hr in | rain 24hr in | rain mn in | humidity % | barometer mb |
| 20260904103655 | 54 | 118 | 0.0 | 0.0 | 0.00 | 0.16 | 0.16 | 98 | 1010.9 |
| 20260904102153 | 54 | 115 | 0.0 | 0.0 | 0.00 | 0.16 | 0.16 | 98 | 1010.9 |
| 20260904100653 | 54 | 70 | 1.0 | 1.0 | 0.07 | 0.15 | 0.15 | 98 | 1010.9 |
| 20260904095148 | 54 | 137 | 2.0 | 2.0 | 0.12 | 0.13 | 0.13 | 97 | 1011.1 |
| 20260904093647 | 54 | 146 | 1.0 | 3.0 | 0.12 | 0.11 | 0.11 | 98 | 1011.0 |
| 20260904092144 | 54 | 159 | 2.0 | 3.0 | 0.00 | 0.09 | 0.09 | 98 | 1010.9 |
| 20260904090641 | 54 | 170 | 0.0 | 1.0 | 0.07 | 0.09 | 0.09 | 99 | 1011.1 |
| 20260904085137 | 54 | 309 | 1.0 | 1.0 | 0.07 | 0.08 | 0.08 | 98 | 1011.1 |
| 20260904083637 | 54 | 153 | 0.0 | 0.0 | 0.00 | 0.06 | 0.06 | 99 | 1011.2 |
| 20260904082135 | 54 | 52 | 1.0 | 1.0 | 0.12 | 0.06 | 0.06 | 98 | 1011.0 |
| 20260904080632 | 54 | 154 | 0.0 | 0.0 | 0.05 | 0.03 | 0.03 | 98 | 1011.0 |
| 20260904075131 | 54 | 155 | 0.0 | 1.0 | 0.05 | 0.01 | 0.01 | 99 | 1011.2 |
| 20260904073625 | 54 | 104 | 0.0 | 0.0 | 0.00 | 0.00 | 0.00 | 99 | 1011.1 |
| 20260904072124 | 53 | 57 | 1.0 | 1.0 | 0.00 | 0.00 | 0.00 | 99 | 1011.2 |
| 20260904070619 | 54 | 104 | 0.0 | 0.0 | 0.00 | 0.00 | 0.00 | 98 | 1010.8 |
| 20260904065117 | 54 | 107 | 0.0 | 0.0 | 0.00 | 0.42 | 0.42 | 98 | 1010.9 |
| 20260904063614 | 54 | 105 | 0.0 | 0.0 | 0.00 | 0.42 | 0.42 | 97 | 1010.9 |
| 20260904062113 | 54 | 160 | 0.0 | 0.0 | 0.00 | 0.42 | 0.42 | 97 | 1010.8 |
| 20260904060613 | 55 | 160 | 0.0 | 0.0 | 0.00 | 0.42 | 0.42 | 96 | 1010.9 |
| 20260904055110 | 55 | 159 | 0.0 | 0.0 | 0.00 | 0.42 | 0.42 | 97 | 1010.9 |
| 20260904053607 | 55 | 165 | 1.0 | 1.0 | 0.00 | 0.42 | 0.42 | 97 | 1010.8 |
| 20260904052107 | 55 | 180 | 1.0 | 1.0 | 0.00 | 0.42 | 0.42 | 97 | 1011.0 |
| 20260904050604 | 55 | 168 | 1.0 | 2.0 | 0.07 | 0.42 | 0.42 | 96 | 1011.1 |
| 20260904045101 | 55 | 168 | 1.0 | 1.0 | 0.00 | 0.41 | 0.41 | 96 | 1011.1 |
| 20260904043601 | 55 | 169 | 1.0 | 2.0 | 0.00 | 0.41 | 0.41 | 96 | 1011.0 |
| 20260904042059 | 55 | 157 | 0.0 | 1.0 | 0.00 | 0.41 | 0.41 | 97 | 1010.9 |
| 20260904040557 | 55 | 173 | 0.0 | 1.0 | 0.00 | 0.41 | 0.41 | 97 | 1011.0 |
| 20260904035054 | 55 | 157 | 0.0 | 1.0 | 0.00 | 0.41 | 0.41 | 97 | 1011.0 |
| 20260904033552 | 55 | 165 | 0.0 | 1.0 | 0.00 | 0.41 | 0.41 | 97 | 1010.8 |
| 20260904032049 | 55 | 127 | 0.0 | 0.0 | 0.00 | 0.41 | 0.41 | 96 | 1010.8 |
| 20260904030546 | 56 | 187 | 1.0 | 1.0 | 0.00 | 0.40 | 0.40 | 94 | 1011.0 |
| 20260904025043 | 56 | 164 | 2.0 | 3.0 | 0.00 | 0.40 | 0.40 | 94 | 1011.0 |
| 20260904023542 | 57 | 176 | 0.0 | 1.0 | 0.05 | 0.39 | 0.39 | 95 | 1011.1 |
| 20260904022041 | 57 | 171 | 1.0 | 1.0 | 0.19 | 0.37 | 0.37 | 94 | 1011.0 |
| 20260904020537 | 57 | 155 | 0.0 | 1.0 | 0.00 | 0.34 | 0.34 | 93 | 1010.8 |
| 20260904015038 | 57 | 175 | 1.0 | 1.0 | 0.00 | 0.34 | 0.34 | 92 | 1010.7 |
| 20260904013536 | 57 | 149 | 0.0 | 0.0 | 0.00 | 0.34 | 0.34 | 91 | 1010.7 |
| 20260904012032 | 57 | 160 | 2.0 | 3.0 | 0.05 | 0.34 | 0.34 | 90 | 1010.9 |
| 20260904010529 | 57 | 137 | 1.0 | 2.0 | 0.07 | 0.33 | 0.33 | 90 | 1010.7 |
| 20260904005026 | 57 | 168 | 1.0 | 1.0 | 0.07 | 0.31 | 0.31 | 91 | 1010.9 |
| 20260904003524 | 58 | 170 | 1.0 | 2.0 | 0.17 | 0.30 | 0.30 | 91 | 1010.9 |
| 20260904002020 | 59 | 160 | 0.0 | 1.0 | 0.07 | 0.26 | 0.26 | 93 | 1011.1 |
| 20260904000515 | 59 | 178 | 0.0 | 0.0 | 0.12 | 0.24 | 0.24 | 93 | 1011.1 |
| 20260903235013 | 59 | 171 | 0.0 | 0.0 | 0.00 | 0.21 | 0.21 | 90 | 1010.8 |
| 20260903233512 | 59 | 175 | 1.0 | 1.0 | 0.00 | 0.21 | 0.21 | 89 | 1010.9 |
| 20260903232008 | 59 | 189 | 1.0 | 1.0 | 0.00 | 0.21 | 0.21 | 86 | 1011.1 |
| 20260903230505 | 58 | 75 | 1.0 | 1.0 | 0.00 | 0.21 | 0.21 | 93 | 1011.1 |
| 20260903225005 | 56 | 175 | 1.0 | 1.0 | 0.24 | 0.21 | 0.21 | 89 | 1011.1 |
| 20260903223500 | 58 | 183 | 2.0 | 2.0 | 0.00 | 0.16 | 0.16 | 88 | 1011.5 |
| 20260903221959 | 59 | 190 | 0.0 | 1.0 | 0.00 | 0.16 | 0.16 | 86 | 1011.2 |
| 20260903220458 | 57 | 177 | 0.0 | 0.0 | 0.00 | 0.16 | 0.16 | 88 | 1011.1 |
| 20260903214956 | 55 | 211 | 1.0 | 1.0 | 0.00 | 0.15 | 0.15 | 90 | 1011.4 |
| 20260903213454 | 56 | 251 | 1.0 | 2.0 | 0.07 | 0.13 | 0.13 | 88 | 1011.6 |
| 20260903211950 | 59 | 323 | 1.0 | 1.0 | 0.00 | 0.12 | 0.12 | 83 | 1011.6 |
| 20260903210448 | 61 | 9 | 2.0 | 2.0 | 0.00 | 0.12 | 0.12 | 82 | 1011.1 |
| 20260903204944 | 61 | 183 | 0.0 | 0.0 | 0.00 | 0.12 | 0.12 | 85 | 1011.2 |
| 20260903203443 | 61 | 183 | 0.0 | 0.0 | 0.00 | 0.12 | 0.12 | 84 | 1011.2 |
| 20260903201938 | 61 | 212 | 2.0 | 2.0 | 0.00 | 0.12 | 0.12 | 85 | 1011.3 |
| 20260903200433 | 59 | 162 | 2.0 | 3.0 | 0.00 | 0.12 | 0.12 | 87 | 1011.4 |
| 20260903194931 | 59 | 178 | 3.0 | 5.0 | 0.00 | 0.12 | 0.12 | 88 | 1011.7 |
| 20260903193430 | 58 | 189 | 6.0 | 8.0 | 0.00 | 0.12 | 0.12 | 90 | 1011.7 |
| 20260903191929 | 59 | 183 | 5.0 | 8.0 | 0.00 | 0.12 | 0.12 | 88 | 1011.6 |
| 20260903190424 | 60 | 211 | 5.0 | 7.0 | 0.00 | 0.12 | 0.12 | 85 | 1011.7 |
| 20260903184921 | 60 | 226 | 2.0 | 3.0 | 0.00 | 0.12 | 0.12 | 85 | 1011.5 |
| 20260903183418 | 60 | 211 | 3.0 | 3.0 | 0.00 | 0.12 | 0.12 | 90 | 1011.6 |
| 20260903181918 | 59 | 262 | 2.0 | 2.0 | 0.00 | 0.12 | 0.12 | 91 | 1011.4 |
| 20260903180412 | 58 | 251 | 2.0 | 2.0 | 0.00 | 0.12 | 0.12 | 93 | 1011.6 |
| 20260903174912 | 58 | 159 | 2.0 | 3.0 | 0.00 | 0.12 | 0.12 | 93 | 1011.5 |
| 20260903173409 | 58 | 179 | 2.0 | 2.0 | 0.05 | 0.12 | 0.12 | 94 | 1011.7 |
| 20260903171906 | 57 | 192 | 1.0 | 2.0 | 0.12 | 0.11 | 0.11 | 93 | 1011.7 |
| 20260903170401 | 58 | 183 | 3.0 | 5.0 | 0.00 | 0.08 | 0.08 | 88 | 1011.8 |
| 20260903164901 | 59 | 224 | 3.0 | 5.0 | 0.00 | 0.08 | 0.08 | 87 | 1011.7 |
| 20260903163357 | 59 | 183 | 3.0 | 6.0 | 0.00 | 0.08 | 0.08 | 86 | 1011.6 |
| 20260903161857 | 60 | 194 | 3.0 | 3.0 | 0.00 | 0.08 | 0.08 | 85 | 1011.7 |
| 20260903160352 | 59 | 200 | 2.0 | 2.0 | 0.00 | 0.08 | 0.08 | 87 | 1011.7 |
| 20260903154848 | 59 | 197 | 3.0 | 6.0 | 0.00 | 0.08 | 0.08 | 88 | 1011.8 |
| 20260903153346 | 59 | 162 | 2.0 | 2.0 | 0.00 | 0.08 | 0.08 | 91 | 1011.5 |
| 20260903151845 | 56 | 164 | 1.0 | 2.0 | 0.00 | 0.08 | 0.08 | 95 | 1011.7 |
| 20260903150340 | 55 | 216 | 2.0 | 2.0 | 0.00 | 0.08 | 0.08 | 95 | 1011.5 |
| 20260903144835 | 55 | 198 | 1.0 | 1.0 | 0.05 | 0.08 | 0.08 | 96 | 1011.7 |
| 20260903143335 | 55 | 152 | 1.0 | 2.0 | 0.07 | 0.07 | 0.07 | 97 | 1011.8 |
| 20260903141833 | 55 | 194 | 1.0 | 2.0 | 0.00 | 0.06 | 0.06 | 97 | 1011.6 |
| 20260903140330 | 55 | 169 | 1.0 | 1.0 | 0.12 | 0.06 | 0.06 | 96 | 1011.7 |
| 20260903134826 | 55 | 162 | 0.0 | 1.0 | 0.05 | 0.04 | 0.04 | 95 | 1011.5 |
| 20260903133321 | 55 | 195 | 0.0 | 0.0 | 0.00 | 0.02 | 0.02 | 95 | 1011.4 |
| 20260903131818 | 55 | 173 | 2.0 | 3.0 | 0.00 | 0.01 | 0.01 | 94 | 1011.2 |
| 20260903130318 | 55 | 186 | 0.0 | 1.0 | 0.00 | 0.01 | 0.01 | 95 | 1011.3 |
| 20260903124817 | 55 | 173 | 0.0 | 1.0 | 0.00 | 0.01 | 0.01 | 95 | 1011.0 |
| 20260903123317 | 55 | 171 | 1.0 | 2.0 | 0.00 | 0.01 | 0.01 | 95 | 1011.3 |
| 20260903121814 | 55 | 185 | 1.0 | 3.0 | 0.00 | 0.01 | 0.01 | 95 | 1011.4 |
| 20260903120311 | 55 | 156 | 2.0 | 3.0 | 0.00 | 0.01 | 0.01 | 95 | 1011.4 |
| 20260903114811 | 55 | 173 | 4.0 | 6.0 | 0.00 | 0.01 | 0.01 | 96 | 1011.4 |
| 20260903113309 | 55 | 173 | 1.0 | 2.0 | 0.00 | 0.01 | 0.01 | 97 | 1011.2 |
| 20260903111804 | 55 | 213 | 2.0 | 2.0 | 0.00 | 0.01 | 0.01 | 97 | 1011.6 |
| 20260903110303 | 55 | 182 | 2.0 | 3.0 | 0.00 | 0.00 | 0.00 | 95 | 1011.5 |
| 20260903104803 | 56 | 179 | 3.0 | 5.0 | 0.00 | 0.00 | 0.00 | 94 | 1011.4 |